Preview of NWS' New Version of Forecast
This preview is not operational and should not be used for support decisions.

Regional Weather Roundup (RWR)

Issued by Gray - Portland, ME (GYX)

                            
000
ASUS41 KGYX 241905
RWRGYX
WEATHER ROUNDUP FOR MAINE AND NEW HAMPSHIRE
NATIONAL WEATHER SERVICE GRAY ME
300 PM EDT WED APR 24 2019

MEZ002-005-006-010-012-015-018-020-021-024-026-027-029-242000-
MAINE
  
CITY           SKY/WX    TMP DP  RH WIND       PRES   REMARKS
PORTLAND       PTSUNNY   53  45  74 NE8       29.69S                  
SANFORD        CLOUDY    59  42  53 W12       29.68R                  
BAR HARBOR     CLOUDY    41  39  93 N6        29.70S                  
WISCASSET      CLOUDY    50  43  77 CALM      29.71R                  
ROCKLAND       CLOUDY    43  41  93 N7        29.70S                  
FRYEBURG       CLOUDY    49  44  83 N5        29.70R                  
LEWISTONAUBURN   N/A     49  44  83 N5        29.70R                  
AUGUSTA        CLOUDY    47  43  86 NW8       29.70S                  
WATERVILLE     CLOUDY    45  42  89 N8        29.68S                  
BANGOR         CLOUDY    42  40  92 N9        29.71F                  
GREENVILLE       N/A     39  34  82 CALM      29.67R                  
MILLINOCKET    CLOUDY    39  37  92 E5        29.74R FOG              
HOULTON        LGT RAIN  40  35  83 NE6       29.71R                  
PRESQUE ISLE   CLOUDY    40  37  89 NE6       29.75R                  
FRENCHVILLE    CLOUDY    38  32  79 NE12G18   29.74F                  
CARIBOU        CLOUDY    40  35  83 N12       29.70F                  
$$

NHZ002-005-008-009-011-012-014-242000-
NEW HAMPSHIRE
  
CITY           SKY/WX    TMP DP  RH WIND       PRES   REMARKS
PORTSMOUTH     PTSUNNY   54  44  69 E9G18     29.66S                  
ROCHESTER      CLOUDY    59  41  51 NW8       29.67R                  
NASHUA         PTSUNNY   62  39  42 NW17G24   29.70R                  
MANCHESTER     PTSUNNY   62  38  40 W14G20    29.68R                  
CONCORD        PTSUNNY   58  38  47 NW17G25   29.70R                  
PLYMOUTH       CLOUDY    52  38  58 W7        29.71R                  
BERLIN         CLOUDY    46  38  73 NW7       29.71R                  
WHITEFIELD     CLOUDY    46  37  71 W10       29.72R                  
JAFFREY        FAIR      56  38  50 W10G24    29.72R                  
KEENE          CLOUDY    55  38  52 NW12      29.74R                  
LEBANON        CLOUDY    52  36  54 W12G18    29.73R                  
MT WASHINGTON  FOG       27  27 100 W41G51      N/A  VSB 0   WCI   8  
$$

VTZ005-007-008-242000-
VERMONT
  
CITY           SKY/WX    TMP DP  RH WIND       PRES   REMARKS
ST JOHNSBURY     N/A     47  37  68 MISG      29.72R                  
MONTPELIER     CLOUDY    44  36  73 NW12      29.78R                  
BURLINGTON     CLOUDY    47  36  65 NW9       29.78R                  
$$

MAZ007-012-024-CTZ003-RIZ002-NYZ038-NYZ072-242000-
SOUTHERN NEW ENGLAND AND NY
  
CITY           SKY/WX    TMP DP  RH WIND       PRES   REMARKS
BOSTON         FAIR      67  40  37 W13G20    29.67F                  
WORCESTER      FAIR      57  38  48 NW21G28   29.72S                  
NANTUCKET      FAIR      63  51  65 N7        29.68S                  
PROVIDENCE     FAIR      67  40  37 N14       29.70R                  
HARTFORD       FAIR      63  37  38 NW16G24   29.75S                  
ALBANY         PTSUNNY   52  36  54 NW16G28   29.84S                  
NEW YORK CITY  FAIR      65  36  34 NW14G25   29.76S                  
$$

ANZ081-ANZ082-ANZ150-NHZ014-MEZ023>029-242000-
COASTAL MARINE OBSERVATIONS
  
STATION/POSITION TIME  TEMP    WIND        PRES    WAVE
                       AIR SEA DIR/SP/G            HT/PER
                 (UTC) (F)     (DEG/KT/KT) (MB)    (FT/S)
ISLE OF SHOALS   1800   42      90/ 12/ 12 1004.6R
JEFFREYS LEDGE   1838      43                N/A     4/ 9
$$

.............KEY..............
   WCI - WIND CHILL
   TC  - TEMPERATURE IN CELSIUS
   VSB - VISIBILITY IN MILES
   HX  - HEAT INDEX
   FAIR- INDICATES FEW OR NO CLOUDS BELOW 12,000 FT, WITH NO 
         SIGNIFICANT WEATHER AND/OR OBSTRUCTIONS TO VISIBILITY.